TimeCDT,TemperatureF,Dew PointF,Humidity,Sea Level PressureIn,VisibilityMPH,Wind Direction,Wind SpeedMPH,Gust SpeedMPH,PrecipitationIn,Events,Conditions,WindDirDegrees,DateUTC
12:58 AM,46.2,34.5,64,30.09,10.0,ENE,2.3,-,N/A,,Clear,70,2013-03-12 05:58:00
1:58 AM,43.9,34.3,69,30.08,10.0,Calm,Calm,-,N/A,,Clear,0,2013-03-12 06:58:00
2:58 AM,40.6,35.2,81,30.09,10.0,North,3.5,-,N/A,,Clear,360,2013-03-12 07:58:00
3:58 AM,39.7,34.2,80,30.08,10.0,NNW,5.8,-,N/A,,Clear,330,2013-03-12 08:58:00
4:58 AM,37.9,32.5,81,30.08,10.0,NW,6.9,-,N/A,,Clear,320,2013-03-12 09:58:00
5:58 AM,37.0,33.1,86,30.10,10.0,NW,3.5,-,N/A,,Clear,310,2013-03-12 10:58:00
6:58 AM,37.4,32.0,81,30.12,10.0,Calm,Calm,-,N/A,,Clear,360,2013-03-12 11:58:00
7:58 AM,36.0,31.6,84,30.14,10.0,NNW,2.3,-,N/A,,Clear,330,2013-03-12 12:58:00
8:58 AM,43.2,36.9,78,30.15,10.0,Calm,Calm,-,N/A,,Clear,0,2013-03-12 13:58:00
9:58 AM,54.5,36.3,50,30.17,10.0,South,6.9,-,N/A,,Clear,180,2013-03-12 14:58:00
10:58 AM,62.1,36.1,38,30.18,10.0,South,11.5,-,N/A,,Clear,190,2013-03-12 15:58:00
11:58 AM,66.7,33.8,29,30.18,10.0,SSW,11.5,-,N/A,,Clear,200,2013-03-12 16:58:00
12:58 PM,70.0,32.9,25,30.16,10.0,SSW,13.8,-,N/A,,Clear,200,2013-03-12 17:58:00
1:01 PM,69.8,32.0,25,30.16,10.0,SW,12.7,-,N/A,,Clear,220,2013-03-12 18:01:00
1:58 PM,73.2,30.6,21,30.13,10.0,SW,11.5,-,N/A,,Clear,220,2013-03-12 18:58:00
2:44 PM,75.2,30.2,19,30.11,10.0,SSW,12.7,18.4,N/A,,Clear,200,2013-03-12 19:44:00
2:58 PM,76.5,29.8,18,30.10,10.0,West,10.4,16.1,N/A,,Clear,260,2013-03-12 19:58:00
3:58 PM,77.9,29.7,17,30.08,10.0,SSW,10.4,16.1,N/A,,Clear,200,2013-03-12 20:58:00
4:58 PM,78.4,29.8,17,30.08,8.0,South,8.1,-,N/A,,Clear,190,2013-03-12 21:58:00
5:58 PM,78.1,28.0,16,30.08,10.0,SW,8.1,-,N/A,,Clear,220,2013-03-12 22:58:00
6:58 PM,75.6,30.2,19,30.10,10.0,South,6.9,-,N/A,,Clear,170,2013-03-12 23:58:00
7:58 PM,69.4,29.5,23,30.12,10.0,South,4.6,-,N/A,,Clear,170,2013-03-13 00:58:00
8:58 PM,68.2,28.6,23,30.14,10.0,South,6.9,-,N/A,,Clear,170,2013-03-13 01:58:00
9:58 PM,60.4,28.9,30,30.15,10.0,SSE,8.1,-,N/A,,Clear,160,2013-03-13 02:58:00
10:58 PM,58.6,37.8,46,30.19,10.0,South,11.5,-,N/A,,Clear,170,2013-03-13 03:58:00
11:55 PM,59.0,41.0,51,30.22,10.0,South,9.2,-,N/A,,Clear,180,2013-03-13 04:55:00